Follow iAlert.com on twitter @ialertcom
Search For Active Alerts in Your Area  
  Hi Guest:  [ Sign-up / Services ] [ Login ]

Current weather by "City, St" or "zip code"  
 

Advertise Here

Current Conditions: Fryeburg, Eastern Slopes Regional Airport, ME

Overcast


34.0 F

Last Updated on Oct 19 2018, 2:54 am EDT
Humidity: 54%
Wind Speed: S 4.6 mph
Barometer 30.18 in
Dewpoint: 19.0 F
Visibility: 10.00 mi
Precip: --
Heat Index: NA
Wind Chill: 30 F
Current conditions at:

Fryeburg, Eastern Slopes Regional Airport, ME (KIZG)

Lat: 43.98 Lon: 70.95

Local Radar Image active severe weather and emergency alerts image image weather storm and storm spotter reports image weather observation monitoring service image
Local
Radar
Active
Alerts
Storm Reports Obs
Monitoring

iAlert Weather and Emergency Alert Notification Services:


ialert severe weather and emergency alerts by text message and email ialert daily weather forecast by email and text message service ialert real-time weather-observation monitoring and alert notification service ialert storm report monitoring alert notification

Observation History for Fryeburg, Eastern Slopes Regional Airport, ME


Time Wind
(mph)
Vis
(mi)
Weather Precip (in) Temperature (F) Relative
Humidity
Wind
Chill
(°F)
Heat
Index
(°F)
Pressure
Air Dwpt altimeter
(in)
sea level
(mb)
2:54 am EDT S 4.6 10.00 Overcast -- 34.0 19.0 54% 30 NA 30.18 1022.4
1:54 am EDT W 4.6 10.00 Overcast -- 38.0 18.0 44% 34 NA 30.19 1022.7
12:54 am EDT S 3.5 10.00 Overcast -- 35.0 17.1 48% NA NA 30.19 1022.8
11:54 pm EDT W 3.5 10.00 Partly Cloudy -- 34.0 12.9 42% NA NA 30.20 1023.1
10:54 pm EDT 5.8 10.00 Fair -- 35.0 17.1 48% 30 NA 30.20 1023.1
9:54 pm EDT 5.8 10.00 Fair -- 34.0 15.1 46% 29 NA 30.19 1023.0
8:54 pm EDT N 0.0 10.00 Fair -- 35.0 15.1 44% NA NA 30.18 1022.7
7:54 pm EDT W 8.1 10.00 Fair -- 36.0 15.1 42% 30 NA 30.19 1022.9
6:54 pm EDT W 13.8 G 24.2 10.00 Fair -- 37.0 15.1 41% 28 NA 30.19 1022.8
5:54 pm EDT 4.6 10.00 Mostly Cloudy -- 36.0 17.1 46% 32 NA 30.18 1022.4
4:54 pm EDT W 9.2 G 23.0 10.00 Mostly Cloudy -- 39.0 15.1 38% 33 NA 30.16 1021.8
3:54 pm EDT W 11.5 G 18.4 10.00 Overcast -- 41.0 15.1 35% 34 NA 30.15 1021.4
2:54 pm EDT NW 12.7 G 23.0 10.00 Mostly Cloudy -- 40.0 15.1 36% 33 NA 30.15 1021.3
1:54 pm EDT NW 12.7 G 23.0 10.00 Mostly Cloudy -- 41.0 17.1 38% 34 NA 30.14 1021.1
12:54 pm EDT NW 11.5 G 24.2 10.00 Overcast -- 38.0 17.1 43% 31 NA 30.15 1021.4
11:54 am EDT NW 10.4 G 21.9 10.00 Mostly Cloudy -- 38.0 17.1 43% 31 NA 30.15 1021.6
10:54 am EDT NW 11.5 G 27.6 10.00 Partly Cloudy -- 38.0 18.0 44% 31 NA 30.14 1021.0
9:54 am EDT W 10.4 G 25.3 10.00 Overcast -- 37.0 19.0 48% 30 NA 30.13 1020.9
8:54 am EDT NW 8.1 10.00 Overcast Trace 37.0 21.0 52% 31 NA 30.11 1020.1
7:54 am EDT W 9.2 G 16.1 10.00 Overcast Trace 35.0 19.9 54% 28 NA 30.08 1019.2
6:54 am EDT 3.5 10.00 Mostly Cloudy Trace 30.0 27.0 88% NA NA 30.04 1017.7
5:54 am EDT N 0.0 10.00 Mostly Cloudy Trace 32.0 26.1 79% NA NA 30.02 1016.9
4:54 am EDT NW 11.5 G 25.3 10.00 Partly Cloudy -- 36.0 19.9 52% 28 NA 29.97 1015.2
3:54 am EDT W 13.8 G 23.0 10.00 A Few Clouds -- 36.0 21.0 55% 27 NA 29.95 1014.4

Regional Weather Observation


Whitefield - Mount Washington Regional Airport, NH (KHIE)

Overcast
32.0 F

Berlin, Berlin Municipal Airport, NH (KBML)

Overcast
31.0 F

Fryeburg, Eastern Slopes Regional Airport, ME (KIZG)

Overcast
34.0 F

Auburn-Lewiston, ME (KLEW)

Overcast
32.0 F

Plymouth Municipal Airport, NH (K1P1)

Overcast
28.0 F

Laconia, Laconia Municipal Airport, NH (KLCI)

Mostly Cloudy
33.0 F

Advertise Here